Location: L’Échalp
(44.7500°N, 7.0000°E)
Time: 01:48:51
(UTC+00:00)

Daily predictions for brighter satellites

Satellite Brightness Start Highest point End
(mag) Time Altitude Azimuth Time Altitude Azimuth Time Altitude Azimuth
Cosmos 2219 Rocket 4.5 03:10:32 17° NE 03:10:32 17° NE 03:11:51 10° NE
ATLAS 3B R/B 3.9 03:41:57 32° N 03:41:57 32° N 03:46:29 10° NNE
CZ-4C R/B 4.3 03:38:52 23° N 03:41:01 27° NNE 03:47:39 10° E
H-2A R/B 3.3 03:46:25 10° NNE 03:50:59 36° E 03:55:36 10° SSE
Cosmos 2034 Rocket 4.0 03:47:47 10° S 03:54:05 76° E 04:00:23 10° N
Cosmos 1452 Rocket 3.9 04:02:24 61° E 04:02:24 61° E 04:07:18 10° SSE
COSMOS 2428 2.8 04:04:28 73° ENE 04:04:28 73° ENE 04:09:43 10° NNE
Cosmos 2333 Rocket 4.1 04:08:53 18° N 04:08:53 18° N 04:10:33 10° NNE
Cosmos 2026 Rocket 4.5 03:59:30 10° N 04:05:49 59° ENE 04:12:01 10° SSE
ARIANE 5 R/B 3.2 04:02:15 10° NNE 04:07:23 53° E 04:12:29 10° S
CENTAUR R/B 4.0 04:04:39 26° NNW 04:09:02 46° NE 04:17:40 10° ESE
BREEZE M DEB (TANK) 3.8 04:09:07 66° WNW 04:10:13 87° NNE 04:29:48 10° ESE
Cosmos 2278 Rocket 2.8 04:11:18 37° N 04:13:08 53° ENE 04:18:39 10° SE
Cosmos 2195 Rocket 4.4 04:10:21 27° N 04:13:52 79° E 04:19:59 10° S
Cosmos 2221 3.4 04:14:15 45° ENE 04:14:28 45° ENE 04:18:33 10° SSE
Cosmos 2237 Rocket 3.3 04:13:55 10° S 04:19:12 42° ESE 04:24:30 10° NE
Cosmos 1048 Rocket 4.2 04:24:55 55° N 04:24:55 55° N 04:28:58 10° NNE
Cosmos 1331 Rocket 4.0 04:23:11 60° N 04:24:04 77° ENE 04:29:15 10° SSE
Meteor 2-17 Rocket 4.3 04:23:29 23° N 04:27:32 89° W 04:33:35 10° S
Cosmos 1092 Rocket 3.9 04:22:08 12° N 04:27:59 88° E 04:34:17 10° S
SL-08 R/B 4.2 04:24:05 10° SE 04:28:32 47° ENE 04:31:40 18° N
Cosmos 2322 4.1 04:34:59 44° NNW 04:34:59 44° NNW 04:39:29 10° NNE
Lacrosse 5 rocket 2.8 04:35:42 28° NNE 04:35:42 28° NNE 04:38:14 10° NE
SKYMED 2 3.8 04:30:49 10° SSE 04:35:07 69° ENE 04:36:29 42° N
Cosmos 2151 3.9 04:34:09 10° SSE 04:38:11 48° E 04:42:16 10° NNE
Cosmos 1515 4.1 04:38:47 56° SE 04:38:47 56° SE 04:41:48 10° SSE
USA 267 4.3 04:33:18 10° ENE 04:39:03 34° NNE 04:41:48 25° NNW
Cosmos 1634 Rocket 4.0 04:33:07 10° S 04:39:18 85° E 04:45:35 10° N
Cosmos 1428 Rocket 4.4 04:38:34 31° NNW 04:41:33 61° W 04:47:32 10° S
Cosmos 1666 4.3 04:46:38 10° SSE 04:49:47 32° E 04:52:58 10° NNE
Cosmos 2219 Rocket 3.5 04:52:17 23° NNW 04:52:17 23° NNW 04:55:24 10° N
Cosmos 1943 Rocket 2.8 04:46:58 17° NNW 04:51:08 52° ENE 04:56:29 10° SE
Cosmos 2360 Rocket 4.2 04:53:37 13° NNW 04:53:37 13° NNW 04:54:34 10° N
Cosmos 1953 Rocket 3.4 04:47:22 10° SSW 04:51:50 80° W 04:56:21 10° N
BREEZE-M DEB (TANK) 4.4 04:35:34 10° SW 04:53:14 78° SSE 04:56:58 10° ENE
Meteor 2-3 Rocket 3.9 04:52:55 34° WSW 04:54:41 45° WNW 05:00:03 10° N
NOAA 12 4.4 04:49:47 10° NNE 04:55:04 67° ESE 05:00:16 10° S
Cosmos 2279 Rocket 4.1 04:51:59 10° S 04:58:14 79° E 05:04:31 10° N
Cosmos 2285 Rocket 3.9 04:52:56 10° SSW 04:59:17 82° WNW 05:05:44 10° NNE
SL-19 R/B 4.0 04:54:37 10° N 04:59:57 63° WNW 05:05:05 10° SSW
USA 281 3.1 04:54:32 10° NNE 05:01:07 80° WNW 05:07:40 10° SSW
USA 229 DEB 4.1 04:59:44 34° WNW 05:01:08 37° NW 05:07:29 10° NNE
USA 229 4.1 04:59:44 34° WNW 05:01:11 38° NW 05:07:32 10° NNE
Cosmos 1110 Rocket 4.3 05:03:19 37° WNW 05:04:37 44° WSW 05:09:35 10° S
ERS-2 3.4 05:03:30 10° NNE 05:06:11 32° E 05:08:50 10° SSE
IRS-1C 4.4 05:03:12 10° N 05:08:14 44° WNW 05:13:15 10° SW
JB-3 4.2 05:07:17 10° S 05:11:19 70° WSW 05:13:54 21° NNW
SJ-12 3.7 05:09:02 10° N 05:13:03 69° WNW 05:17:03 10° SSW
ATLAS 5 CENTAUR R/B 2.1 05:11:12 10° SSW 05:14:24 44° ESE 05:17:55 10° NE
SL-08 RB Rocket 3.8 05:13:29 10° NNE 05:18:08 83° E 05:22:46 10° SSW
SL-16 R/B 3.7 05:13:01 10° S 05:18:15 39° ESE 05:23:30 10° NE
Cosmos 1500 2.8 05:16:29 10° SSW 05:20:01 69° W 05:23:33 10° N
Blok-2BL 3.6 05:18:53 23° SW 05:20:20 81° NW 05:23:40 10° NE
CZ-2D R/B 3.7 05:17:13 10° N 05:20:51 38° WNW 05:24:31 10° SW
SJ-6F 4.3 05:17:46 10° N 05:21:52 66° WNW 05:25:54 10° SSW
COSMO-SKYMED 1 3.1 05:19:17 10° SSW 05:23:17 36° W 05:25:07 25° NW
Cosmos 1437 Rocket 2.7 05:19:54 10° SSW 05:23:29 49° WNW 05:27:04 10° N
Cosmos 1302 Rocket 3.9 05:19:22 15° NNW 05:23:40 70° WSW 05:28:51 10° S
CZ-3 R/B 3.8 05:09:37 11° WSW 05:24:05 30° SSW 05:30:12 10° SSE
H-2A R/B 2.7 05:26:03 10° N 05:30:15 29° WNW 05:34:31 10° SW
CZ-4C R/B 3.2 05:23:59 13° NW 05:30:34 78° NE 05:39:16 10° SE
Cosmos 2369 Rocket 3.8 05:26:28 10° N 05:31:26 30° NE 05:36:24 10° ESE
BREEZE-M DEB (TANK) 4.3 05:30:59 11° SW 05:32:23 13° SSW 05:34:30 10° S
ATLAS 3B R/B 4.3 05:29:12 15° NW 05:32:24 19° NNW 05:37:41 10° NNE
ARGOS 3.1 05:27:13 10° N 05:32:32 62° WNW 05:37:49 10° SSW
Cosmos 1602 3.4 05:32:38 10° SSW 05:36:17 78° W 05:39:59 10° N
Cosmos 1842 Rocket 3.8 05:32:07 10° NNW 05:36:24 47° W 05:40:40 10° SSW
NOSS 0 Rocket 4.3 05:30:35 10° SW 05:36:27 41° NW 05:42:21 10° NNE
SJ-11-01 4.2 05:31:57 10° NNE 05:36:40 87° WNW 05:41:22 10° SSW
BREEZE-M DEB (TANK) 3.3 05:35:17 22° WNW 05:37:36 72° NNE 05:48:03 10° ESE
Cosmos 1992 Rocket 4.1 05:33:04 10° NNW 05:38:19 78° ENE 05:43:32 10° SSE
Cosmos 1980 3.9 05:33:22 10° SW 05:38:47 46° WNW 05:44:15 10° NNE
CZ-2D R/B 3.0 05:37:30 10° N 05:41:09 69° WNW 05:44:47 10° SSW
Cosmos 1655 Rocket 4.3 05:37:15 10° N 05:43:33 72° E 05:49:54 10° SSE
Cosmos 1076 Rocket 3.9 05:39:57 10° SW 05:44:00 39° WNW 05:48:06 10° N
SAR-Lupe-2 3.5 05:40:41 10° NNE 05:44:18 86° WNW 05:47:52 10° SSW
IKONOS-2 4.4 05:40:15 10° S 05:44:23 68° WSW 05:48:35 10° NNW
Cosmos 614 Rocket 3.9 05:40:20 10° SSW 05:45:32 79° WNW 05:50:48 10° NNE
Meteor 2-6 Rocket 4.5 05:40:22 10° NNW 05:45:48 46° W 05:51:04 10° SSW
Geosat 4.1 05:41:03 10° NNE 05:45:57 54° WNW 05:50:49 10° SW
ARIANE 5 R/B 3.6 05:42:03 10° NNW 05:46:05 23° WNW 05:50:06 10° WSW
NOSS 3-2 (C) 4.5 05:39:30 10° NNW 05:46:51 63° NE 05:55:27 10° SE
DELTA 2 DEB (DPAF) 4.0 05:42:43 10° S 05:47:00 78° WSW 05:51:19 10° NNW
USA 215 3.6 05:40:30 10° NE 05:47:01 69° SE 05:53:30 10° SW
COSMOS 2428 4.0 05:46:32 16° WNW 05:48:55 20° NW 05:53:05 10° N
Cosmos 2221 4.0 05:51:00 16° WNW 05:51:28 16° W 05:54:05 10° WSW
SJ-7 4.3 05:49:07 10° N 05:53:13 70° WNW 05:57:16 10° SSW
CZ-2C R/B 2.6 05:49:57 10° N 05:53:44 74° WNW 05:57:32 10° SSW
Cosmos 2278 Rocket 3.3 05:53:11 13° NW 05:56:51 25° WSW 06:01:19 10° SSW
CENTAUR R/B 3.5 05:51:58 10° NW 06:00:14 62° WSW 06:09:12 10° SSE
Cosmos 2266 Rocket 4.0 05:55:49 10° NNW 06:01:49 64° W 06:07:54 10° S
SeaSat 1 3.6 05:57:40 10° ESE 06:02:16 41° NE 06:06:52 10° NNW
Cosmos 2237 Rocket 2.8 05:58:17 10° WSW 06:03:21 33° NW 06:08:26 10° N
Helios 1B rocket 2.6 05:59:47 10° N 06:03:35 44° WNW 06:07:23 10° SW
Cosmos 1378 4.4 06:03:21 11° NW 06:05:32 19° W 06:08:02 10° SW
CZ-4B R/B 3.9 06:02:43 10° NNE 06:06:48 89° SE 06:10:59 10° SSW
NOSS 3-2 (A) 4.3 06:01:10 10° NW 06:08:42 66° WSW 06:17:24 10° SSE
Meteor 1-19 Rocket 4.4 06:03:44 10° N 06:09:47 89° W 06:15:37 10° S
Intercosmos 25 Rocket 3.9 06:06:36 10° SW 06:10:05 42° WNW 06:15:08 10° N
Lacrosse 5 rocket 3.2 06:10:55 10° NW 06:13:50 17° N 06:16:47 10° NNE
Cosmos 2151 4.5 06:13:02 10° WSW 06:15:36 16° WNW 06:18:12 10° NNW
CZ-4B R/B 4.5 06:12:37 10° NNE 06:17:14 49° E 06:21:49 10° S
USA 267 3.5 06:14:56 10° ESE 06:21:26 67° NNE 06:27:56 10° NW
Cosmos 1461 3.7 06:17:27 10° WSW 06:21:29 33° NW 06:25:26 10° NNE
Cosmos 2297 3.7 06:17:42 10° NNW 06:23:23 85° WSW 06:29:00 10° SSE
Cosmos 1666 4.1 06:22:26 10° WSW 06:24:39 16° WNW 06:26:51 10° NNW
Cosmos 1151 Rocket 3.0 06:20:27 10° NNW 06:24:45 66° W 06:29:03 10° S
NOSS 2-1 (C) 2.8 06:21:57 10° SW 06:25:23 87° SE 06:28:26 10° NE
